Boulder City, NV

5:51 PM PDT on May 24, 2017 (GMT -0700)
Boulder City

Weather History for KBVU - June, 2013

Change the Weather History Date:

Friday, June 7, 2013

  Actual Average (KLAS) Record (KLAS)
Temperature  
Mean Temperature 92 °F -  
Max Temperature 107 °F 94 °F 109 °F (2013)
Min Temperature 77 °F 66 °F 52 °F (1950)
Cooling Degree Days 27    
Growing Degree Days 42 (Base 50)    
Moisture  
Dew Point 24 °F    
Average Humidity 10    
Maximum Humidity 24    
Minimum Humidity 4    
Precipitation  
Precipitation 0.00 in - - ()
Sea Level Pressure  
Sea Level Pressure 29.77 in    
Wind  
Wind Speed 4 mph (NNE)    
Max Wind Speed 10 mph    
Max Gust Speed 17 mph    
Visibility 10 miles    
Events Thunderstorm    
Averages and records for this station are not official NWS values.
T = Trace of Precipitation, MM = Missing Value Source: NWS Daily Summary

Daily Weather History Graph

Daily Weather History Graph

Search for Another Location

Airport or City:

Trip Planner

Search our weather history database for the weather conditions in past years. The results will help you decide how hot, cold, wet, or windy it might be!

Date:

Astronomy

Jun. 07, 2013 Rise Set
Actual Time 5:22 AM PDT 7:54 PM PDT
Civil Twilight 4:52 AM PDT 8:24 PM PDT
Nautical Twilight 4:15 AM PDT 9:01 PM PDT
Astronomical Twilight 3:34 AM PDT 9:42 PM PDT
Moon 4:46 AM PDT (6/7) 7:13 PM PDT (6/7)
Length of Visible Light 15h 31m
Length of Day
14h 31m
Waning Crescent, 1% of the Moon is Illuminated
Jun 7
Waning Crescent
Jun 8
New
Jun 16
First Quarter
Jun 23
Full
Jun 29
Last Quarter

Hourly Weather History & Observations

Time (PDT) Temp. Dew Point Humidity Pressure Visibility Wind Dir Wind Speed Gust Speed Precip Events Conditions
12:15 AM 82.4 °F 33.8 °F 17% 29.77 in 10.0 mi Calm Calm - N/A   Clear
12:35 AM 78.8 °F 37.4 °F 23% 29.77 in 10.0 mi Calm Calm - N/A   Clear
12:55 AM 80.6 °F 32.0 °F 17% 29.77 in 10.0 mi Calm Calm - N/A   Clear
1:15 AM 80.6 °F 35.6 °F 20% 29.77 in 10.0 mi Calm Calm - N/A   Clear
1:35 AM 77.0 °F 37.4 °F 24% 29.77 in 10.0 mi Calm Calm - N/A   Clear
2:55 AM 77.0 °F 37.4 °F 24% 29.78 in 10.0 mi NNE 3.5 mph - N/A   Clear
3:15 AM 77.0 °F 35.6 °F 22% 29.78 in 10.0 mi NNE 3.5 mph - N/A   Clear
3:35 AM 77.0 °F 35.6 °F 22% 29.77 in 10.0 mi NNE 5.8 mph - N/A   Clear
3:55 AM 77.0 °F 35.6 °F 22% 29.78 in 10.0 mi North 6.9 mph - N/A   Clear
4:15 AM 77.0 °F 32.0 °F 19% 29.78 in 10.0 mi NNE 6.9 mph - N/A   Clear
4:35 AM 77.0 °F 33.8 °F 21% 29.79 in 10.0 mi North 8.1 mph - N/A   Clear
4:55 AM 78.8 °F 28.4 °F 16% 29.79 in 10.0 mi North 6.9 mph - N/A   Clear
5:15 AM 77.0 °F 30.2 °F 18% 29.80 in 10.0 mi NNE 6.9 mph - N/A   Clear
5:35 AM 78.8 °F 28.4 °F 16% 29.81 in 10.0 mi North 8.1 mph - N/A   Clear
5:55 AM 82.4 °F 26.6 °F 13% 29.81 in 10.0 mi North 5.8 mph - N/A   Clear
6:15 AM 80.6 °F 30.2 °F 16% 29.82 in 10.0 mi North 5.8 mph - N/A   Clear
6:35 AM 84.2 °F 24.8 °F 11% 29.83 in 10.0 mi WSW 3.5 mph - N/A   Clear
6:55 AM 82.4 °F 26.6 °F 13% 29.84 in 10.0 mi Calm Calm - N/A   Clear
7:15 AM 86.0 °F 32.0 °F 14% 29.83 in 10.0 mi Calm Calm - N/A   Clear
7:35 AM 87.8 °F 26.6 °F 11% 29.84 in 10.0 mi Calm Calm - N/A   Clear
7:55 AM 87.8 °F 24.8 °F 10% 29.84 in 10.0 mi SSW 3.5 mph - N/A   Clear
8:15 AM 89.6 °F 24.8 °F 10% 29.85 in 10.0 mi Calm Calm - N/A   Clear
8:35 AM 91.4 °F 24.8 °F 9% 29.85 in 10.0 mi Calm Calm - N/A   Clear
8:55 AM 93.2 °F 26.6 °F 9% 29.85 in 10.0 mi NNE 5.8 mph - N/A   Clear
9:15 AM 95.0 °F 24.8 °F 8% 29.85 in 10.0 mi NNE 6.9 mph - N/A   Clear
9:35 AM 96.8 °F 24.8 °F 8% 29.84 in 10.0 mi NE 5.8 mph - N/A   Clear
9:55 AM 98.6 °F 24.8 °F 7% 29.84 in 10.0 mi NNE 6.9 mph - N/A   Clear
10:15 AM 98.6 °F 24.8 °F 7% 29.84 in 10.0 mi NNE 8.1 mph - N/A   Clear
10:35 AM 98.6 °F 23.0 °F 7% 29.84 in 10.0 mi NNE 6.9 mph - N/A   Clear
10:55 AM 100.4 °F 21.2 °F 6% 29.84 in 10.0 mi NNE 6.9 mph - N/A   Clear
11:15 AM 100.4 °F 19.4 °F 5% 29.83 in 10.0 mi NNE 8.1 mph - N/A   Clear
11:35 AM 102.2 °F 17.6 °F 5% 29.83 in 10.0 mi East 8.1 mph - N/A Thunderstorm Clear
11:55 AM 102.2 °F 17.6 °F 5% 29.83 in 10.0 mi ENE 4.6 mph - N/A Thunderstorm Clear
12:15 PM 102.2 °F 17.6 °F 5% 29.82 in 10.0 mi ENE 8.1 mph - N/A   Clear
12:35 PM 102.2 °F 17.6 °F 5% 29.82 in 10.0 mi ENE 4.6 mph - N/A   Clear
12:55 PM 104.0 °F 17.6 °F 5% 29.81 in 10.0 mi East 5.8 mph - N/A   Clear
1:15 PM 104.0 °F 17.6 °F 5% 29.80 in 10.0 mi East 6.9 mph - N/A   Clear
1:35 PM 104.0 °F 17.6 °F 5% 29.80 in 10.0 mi NNE 5.8 mph - N/A   Clear
1:55 PM 105.8 °F 17.6 °F 4% 29.79 in 10.0 mi NE 4.6 mph - N/A   Clear
2:15 PM 107.6 °F 15.8 °F 4% 29.78 in 10.0 mi NNW 4.6 mph - N/A   Clear
2:35 PM 105.8 °F 15.8 °F 4% 29.77 in 10.0 mi SE 5.8 mph - N/A   Clear
2:55 PM 105.8 °F 14.0 °F 4% 29.76 in 10.0 mi Calm Calm - N/A   Clear
3:15 PM 107.6 °F 15.8 °F 4% 29.76 in 10.0 mi North 8.1 mph 17.3 mph N/A   Clear
3:35 PM 107.6 °F 15.8 °F 4% 29.75 in 10.0 mi North 9.2 mph - N/A   Clear
3:55 PM 107.6 °F 15.8 °F 4% 29.74 in 10.0 mi NE 10.4 mph - N/A   Clear
4:15 PM 105.8 °F 14.0 °F 4% 29.73 in 10.0 mi Calm Calm - N/A   Clear
4:35 PM 107.6 °F 14.0 °F 4% 29.73 in 10.0 mi East 8.1 mph - N/A   Clear
4:55 PM 105.8 °F 15.8 °F 4% 29.72 in 10.0 mi NE 8.1 mph - N/A   Clear
5:15 PM 107.6 °F 14.0 °F 4% 29.72 in 10.0 mi WNW 6.9 mph - N/A   Clear
5:35 PM 107.6 °F 15.8 °F 4% 29.71 in 10.0 mi North 5.8 mph - N/A Thunderstorm Clear
5:55 PM 105.8 °F 15.8 °F 4% 29.71 in 10.0 mi NNE 3.5 mph - N/A   Clear
6:15 PM 105.8 °F 14.0 °F 4% 29.71 in 10.0 mi East 8.1 mph - N/A Thunderstorm Clear
6:35 PM 105.8 °F 14.0 °F 4% 29.71 in 10.0 mi ESE 3.5 mph - N/A   Clear
6:55 PM 104.0 °F 14.0 °F 4% 29.70 in 10.0 mi ENE 3.5 mph - N/A   Clear
7:15 PM 104.0 °F 15.8 °F 4% 29.70 in 10.0 mi ENE 3.5 mph - N/A   Clear
7:35 PM 104.0 °F 14.0 °F 4% 29.70 in 10.0 mi SE 3.5 mph - N/A   Clear
7:55 PM 98.6 °F 28.4 °F 8% 29.70 in 10.0 mi Calm Calm - N/A   Clear
8:15 PM 93.2 °F 35.6 °F 13% 29.70 in 10.0 mi Calm Calm - N/A   Clear
8:35 PM 89.6 °F 33.8 °F 14% 29.70 in 10.0 mi NNE 3.5 mph - N/A   Clear
8:55 PM 89.6 °F 37.4 °F 16% 29.70 in 10.0 mi North 3.5 mph - N/A   Clear
9:15 PM 87.8 °F 32.0 °F 14% 29.71 in 10.0 mi North 3.5 mph - N/A   Clear
9:35 PM 87.8 °F 32.0 °F 14% 29.71 in 10.0 mi NNW 3.5 mph - N/A   Clear
9:55 PM 86.0 °F 32.0 °F 14% 29.71 in 10.0 mi NNW 3.5 mph - N/A   Clear
10:15 PM 86.0 °F 32.0 °F 14% 29.72 in 10.0 mi Calm Calm - N/A   Clear
10:35 PM 89.6 °F 17.6 °F 7% 29.72 in 10.0 mi Calm Calm - N/A   Clear
10:55 PM 86.0 °F 23.0 °F 10% 29.71 in 10.0 mi NW 3.5 mph - N/A   Clear
11:15 PM 89.6 °F 15.8 °F 7% 29.71 in 10.0 mi West 4.6 mph - N/A   Clear
11:35 PM 89.6 °F 17.6 °F 7% 29.71 in 10.0 mi WNW 4.6 mph - N/A Thunderstorm Clear
11:55 PM 87.8 °F 15.8 °F 7% 29.71 in 10.0 mi West 6.9 mph - N/A   Clear